CAPE
0 0 0 0 0 0 0 0 3 5 0 0 29 32 29 4 0 0 0 0 222 585 889 1307 1326 1366 1373 1457 1508 1653 1852 1895 1928 2040 2123 2220 2297 2258 2101 1963 1939 1858 1817 1049 1283 949 733 274 244
0 0 0 0 0 0 0 0 0 16 4 2 22 51 47 20 8 0 0 11 191 548 737 1097 1214 1231 1294 1354 1495 1626 1847 1807 1830 1882 1983 2052 2109 2100 1908 1575 1574 1728 1553 945 1054 603 732 499 451
0 0 0 0 0 0 0 0 3 0 4 14 61 0 43 63 5 0 0 1 14 447 742 987 1079 1138 1218 1312 1397 1500 1598 1564 1605 1657 1811 1901 1973 1971 1802 1493 1433 1655 1460 955 870 515 783 535 256
0 0 0 0 0 0 0 0 0 15 131 208 132 49 17 0 0 0 0 0 0 510 616 652 958 1081 1199 1312 1360 1323 1263 1206 1301 1445 1622 1760 1803 1700 1495 1439 1504 1596 1438 1082 792 761 603 309 117
0 0 0 0 0 0 0 0 0 0 271 208 18 4 11 0 0 0 0 0 399 390 498 531 627 1000 1189 1365 1336 1136 1024 1030 1150 1279 1360 1488 1584 1403 1150 1205 1355 1260 1378 1317 993 750 423 217 66
0 0 0 0 0 0 0 0 0 0 0 281 102 14 1 0 0 0 0 331 304 377 471 539 556 681 1137 1161 1055 892 820 870 945 1029 1160 1315 1140 1006 1041 1036 1095 1043 950 837 567 311 167 73 1
0 0 0 0 0 0 0 0 0 0 0 70 178 1 0 32 5 0 246 268 160 306 429 590 694 878 935 879 781 675 617 675 743 759 885 958 799 667 904 1016 962 880 697 562 230 115 44 12 0
0 0 0 0 0 0 0 0 0 0 0 0 0 431 218 0 121 132 420 278 103 111 299 416 570 633 471 456 578 544 503 495 507 499 546 537 557 564 630 718 784 680 575 438 117 48 35 28 0
0 0 0 0 0 0 0 0 0 0 0 0 38 353 234 0 56 221 505 396 145 137 145 227 465 572 464 300 415 402 425 393 386 386 340 110 92 278 434 353 464 451 309 263 63 0 30 7 0
0 0 0 0 0 0 0 0 0 0 0 0 0 45 338 38 26 209 337 616 350 211 151 187 176 296 472 615 197 132 246 124 124 162 88 5 0 6 200 124 165 239 113 45 19 0 0 0 0
0 0 0 0 0 0 0 0 0 0 0 0 0 0 0 34 30 7 108 522 656 434 262 227 134 182 214 137 100 136 95 84 77 13 5 0 0 0 0 0 25 10 13 0 0 0 0 0 0
0 0 0 0 0 0 0 0 0 0 0 0 0 0 0 0 0 0 0 0 460 758 610 378 224 194 196 112 77 74 119 69 57 58 4 0 0 0 0 0 0 0 0 0 0 0 0 0 0
0 0 0 0 0 0 0 0 0 0 0 0 0 0 0 0 0 0 0 0 0 0 691 571 572 313 260 291 210 36 19 96 62 58 85 34 0 0 0 0 0 0 0 0 0 0 0 0 0
0 0 0 0 0 0 0 0 0 0 0 0 0 0 0 0 0 0 0 0 0 0 0 214 649 605 397 390 531 134 32 54 3 39 84 158 24 7 0 0 0 0 0 0 0 0 0 0 0
0 0 0 0 0 0 0 0 0 0 0 0 0 0 0 0 0 0 0 0 0 0 0 0 3 562 695 487 427 769 551 140 22 13 37 240 110 28 64 4 0 0 0 0 0 0 0 0 0
0 0 0 0 0 0 0 0 0 0 0 0 0 0 0 0 0 0 0 0 0 0 0 0 0 0 0 12 703 707 534 547 215 57 17 187 186 92 51 110 43 0 0 0 0 0 0 0 0
0 0 0 0 0 0 0 0 0 0 0 0 0 0 0 0 0 0 0 0 0 0 0 0 0 0 0 0 0 0 299 486 591 162 186 25 244 142 40 11 44 3 0 0 0 0 0 0 0
0 0 0 0 0 0 0 0 0 0 0 0 0 0 0 0 0 0 0 0 0 0 0 0 0 0 0 0 0 0 0 0 5 52 31 120 190 160 172 56 9 27 0 0 0 0 0 0 0
0 0 0 0 0 0 0 0 0 0 0 0 0 0 0 0 0 0 0 0 0 0 0 0 0 0 0 0 0 0 0 0 0 0 0 0 0 22 110 132 62 47 61 28 0 0 0 0 0
0 0 0 0 0 0 0 0 0 0 0 0 0 0 0 0 0 0 0 0 0 0 0 0 0 0 0 0 0 0 0 0 0 0 0 0 0 0 0 3 102 90 83 21 5 0 0 0 0
0 0 0 0 0 0 0 0 0 0 0 0 0 0 0 0 0 0 0 0 0 0 0 0 0 0 0 0 0 0 0 0 0 0 0 0 0 0 0 0 0 0 77 101 33 7 0 12 0
0 0 0 0 0 0 0 0 0 0 0 0 0 0 0 0 0 0 0 0 0 0 0 0 0 0 0 0 0 0 0 0 0 0 0 0 0 0 0 0 0 0 0 1 19 38 12 0 2
0 0 0 0 0 0 0 0 0 0 0 0 0 0 0 0 0 0 0 0 0 0 0 0 0 0 0 0 0 0 0 0 0 0 0 0 0 0 0 0 0 0 1 2 3 5 39 24 6
0 0 0 0 0 0 0 0 0 0 0 0 0 0 0 0 0 0 0 0 0 0 0 0 0 0 0 0 0 0 0 0 0 0 0 0 0 0 0 0 0 1 4 4 6 9 4 51 56
0 0 0 0 0 0 0 0 0 0 0 0 0 0 0 0 0 0 0 0 0 0 0 0 0 0 0 0 0 0 0 0 0 0 0 0 0 0 0 0 0 0 0 0 1 7 11 8 9
0 0 0 0 0 0 0 0 0 0 0 0 0 0 0 0 0 0 0 0 0 0 0 0 0 0 0 0 0 0 0 0 0 0 0 0 0 0 0 0 0 0 0 0 3 7 13 12 10
0 0 0 0 0 0 0 0 0 0 0 0 0 0 0 0 0 0 0 0 0 0 0 0 0 0 0 0 0 0 0 0 0 0 0 0 0 0 0 0 0 0 0 0 2 12 4 0 5
0 0 0 0 0 0 0 0 0 0 0 0 0 0 0 0 0 0 0 0 0 0 0 0 0 0 0 0 0 0 0 0 0 0 0 0 0 0 0 0 0 0 0 0 0 0 15 9 0
0 0 0 0 0 0 0 0 0 0 0 0 0 0 0 0 0 0 0 0 0 0 0 0 0 0 0 0 0 0 0 0 0 0 0 0 0 0 0 0 0 0 0 0 0 0 7 4 7
0 0 0 0 0 0 0 0 0 0 0 0 0 0 0 0 0 0 0 0 0 0 0 0 0 0 0 0 0 0 0 0 0 0 0 0 0 0 0 0 0 0 0 0 0 3 6 7 5
CIN
-0 -0 -0 -0 -0 -0 -0 -0 -55 -96 -0 -0 -221 -233 -287 -239 -0 -0 -0 -0 -457 -322 -202 -124 -120 -105 -78 -54 -48 -61 -17 -0 -0 -0 -0 -0 -0 -0 -1 -2 -1 -0 -0 -17 -1 -16 -39 -135 -133
-0 -0 -0 -0 -0 -0 -0 -0 -0 -82 -31 -97 -203 -183 -234 -358 -418 -0 -0 -449 -477 -336 -233 -145 -115 -101 -80 -50 -32 -29 -24 -11 -0 -0 -0 -0 -0 -0 -2 -4 -2 -0 -0 -26 -15 -58 -46 -96 -126
-0 -0 -0 -0 -0 -0 -0 -0 -75 -9 -31 -59 -169 -0 -262 -276 -399 -0 -0 -145 -215 -363 -255 -159 -132 -89 -73 -46 -22 -17 -27 -24 -16 -2 -0 -0 -0 -0 -1 -3 -4 -0 -2 -31 -35 -78 -45 -99 -167
-0 -0 -0 -0 -0 -0 -0 -0 -0 -122 -147 -147 -194 -258 -335 -0 -9 -0 -0 -0 -0 -331 -298 -270 -151 -99 -57 -38 -22 -11 -29 -46 -31 -18 -1 -0 -0 -0 -2 -2 -1 -0 -0 -14 -41 -54 -83 -150 -230
-0 -0 -0 -0 -0 -0 -0 -0 -0 -0 -157 -223 -349 -380 -351 -0 -0 -0 -0 -0 -363 -358 -280 -267 -230 -118 -64 -23 -18 -28 -33 -38 -32 -20 -6 -0 -0 -1 -5 -2 -1 -1 -2 -8 -34 -59 -117 -177 -285
-0 -0 -0 -0 -0 -0 -0 -0 -0 -0 -0 -258 -336 -174 -186 -0 -0 -0 -0 -402 -411 -359 -265 -220 -211 -186 -78 -52 -40 -34 -33 -36 -32 -22 -10 -1 -5 -14 -13 -13 -6 -8 -14 -31 -86 -152 -217 -306 -66
-0 -0 -0 -0 -0 -0 -0 -0 -0 -0 -0 -287 -337 -199 -0 -356 -294 -0 -413 -418 -478 -405 -299 -198 -161 -102 -98 -115 -111 -98 -68 -32 -21 -26 -16 -11 -31 -48 -19 -13 -28 -30 -47 -74 -157 -223 -303 -373 -0
-0 -0 -0 -0 -0 -0 -0 -0 -0 -0 -0 -0 -27 -240 -305 -0 -354 -348 -341 -370 -501 -506 -370 -270 -179 -156 -184 -175 -151 -157 -151 -117 -70 -42 -27 -41 -52 -59 -51 -42 -36 -57 -79 -104 -197 -258 -272 -283 -0
-0 -0 -0 -0 -0 -0 -0 -0 -0 -0 -0 -0 -250 -246 -295 -0 -364 -282 -248 -341 -453 -443 -432 -360 -231 -168 -198 -233 -161 -162 -162 -169 -155 -122 -97 -196 -192 -100 -78 -98 -82 -82 -116 -145 -225 -0 -260 -202 -0
-0 -0 -0 -0 -0 -0 -0 -0 -0 -0 -0 -0 -0 -33 -190 -296 -292 -237 -249 -236 -343 -394 -434 -384 -363 -280 -183 -126 -279 -284 -182 -240 -234 -219 -244 -124 -0 -86 -115 -149 -149 -137 -172 -208 -251 -0 -0 -0 -0
-0 -0 -0 -0 -0 -0 -0 -0 -0 -0 -0 -0 -0 -0 -0 -17 -134 -40 -269 -223 -261 -332 -375 -394 -413 -336 -289 -338 -395 -326 -309 -300 -279 -306 -321 -0 -0 -0 -0 -0 -265 -317 -262 -0 -0 -0 -0 -0 -0
-0 -0 -0 -0 -0 -0 -0 -0 -0 -0 -0 -0 -0 -0 -0 -0 -0 -0 -0 -0 -233 -260 -283 -325 -365 -354 -303 -348 -418 -406 -341 -358 -313 -287 -360 -0 -0 -0 -0 -0 -0 -0 -0 -0 -0 -0 -0 -0 -0
-0 -0 -0 -0 -0 -0 -0 -0 -0 -0 -0 -0 -0 -0 -0 -0 -0 -0 -0 -0 -0 -0 -222 -256 -257 -314 -301 -274 -289 -448 -423 -339 -333 -304 -246 -285 -83 -0 -0 -0 -0 -0 -0 -0 -0 -0 -0 -0 -0
-0 -0 -0 -0 -0 -0 -0 -0 -0 -0 -0 -0 -0 -0 -0 -0 -0 -0 -0 -0 -0 -0 -0 -331 -212 -212 -232 -227 -164 -303 -417 -386 -173 -366 -288 -205 -297 -320 -0 -0 -0 -0 -0 -0 -0 -0 -0 -0 -0
-0 -0 -0 -0 -0 -0 -0 -0 -0 -0 -0 -0 -0 -0 -0 -0 -0 -0 -0 -0 -0 -0 -0 -0 -7 -200 -163 -160 -133 -99 -103 -259 -388 -365 -335 -157 -228 -277 -163 -189 -0 -0 -0 -0 -0 -0 -0 -0 -0
-0 -0 -0 -0 -0 -0 -0 -0 -0 -0 -0 -0 -0 -0 -0 -0 -0 -0 -0 -0 -0 -0 -0 -0 -0 -0 -0 -12 -79 -64 -117 -90 -178 -294 -331 -200 -164 -198 -218 -117 -166 -0 -0 -0 -0 -0 -0 -0 -0
-0 -0 -0 -0 -0 -0 -0 -0 -0 -0 -0 -0 -0 -0 -0 -0 -0 -0 -0 -0 -0 -0 -0 -0 -0 -0 -0 -0 -0 -0 -197 -119 -52 -125 -118 -233 -114 -120 -191 -222 -149 -35 -0 -0 -0 -0 -0 -0 -0
-0 -0 -0 -0 -0 -0 -0 -0 -0 -0 -0 -0 -0 -0 -0 -0 -0 -0 -0 -0 -0 -0 -0 -0 -0 -0 -0 -0 -0 -0 -0 -0 -202 -223 -43 -174 -118 -131 -128 -197 -186 -137 -0 -0 -0 -0 -0 -0 -0
-0 -0 -0 -0 -0 -0 -0 -0 -0 -0 -0 -0 -0 -0 -0 -0 -0 -0 -0 -0 -0 -0 -0 -0 -0 -0 -0 -0 -0 -0 -0 -0 -0 -0 -0 -0 -0 -219 -165 -134 -178 -164 -112 -148 -0 -0 -0 -0 -0
-0 -0 -0 -0 -0 -0 -0 -0 -0 -0 -0 -0 -0 -0 -0 -0 -0 -0 -0 -0 -0 -0 -0 -0 -0 -0 -0 -0 -0 -0 -0 -0 -0 -0 -0 -0 -0 -0 -0 -47 -151 -135 -91 -166 -150 -0 -0 -0 -0
-0 -0 -0 -0 -0 -0 -0 -0 -0 -0 -0 -0 -0 -0 -0 -0 -0 -0 -0 -0 -0 -0 -0 -0 -0 -0 -0 -0 -0 -0 -0 -0 -0 -0 -0 -0 -0 -0 -0 -0 -0 -0 -120 -106 -193 -108 -0 -193 -0
-0 -0 -0 -0 -0 -0 -0 -0 -0 -0 -0 -0 -0 -0 -0 -0 -0 -0 -0 -0 -0 -0 -0 -0 -0 -0 -0 -0 -0 -0 -0 -0 -0 -0 -0 -0 -0 -0 -0 -0 -0 -0 -0 -0 -128 -231 -205 -0 -130
-0 -0 -0 -0 -0 -0 -0 -0 -0 -0 -0 -0 -0 -0 -0 -0 -0 -0 -0 -0 -0 -0 -0 -0 -0 -0 -0 -0 -0 -0 -0 -0 -0 -0 -0 -0 -0 -0 -0 -0 -0 -0 -0 -0 -0 -0 -131 -187 -210
-0 -0 -0 -0 -0 -0 -0 -0 -0 -0 -0 -0 -0 -0 -0 -0 -0 -0 -0 -0 -0 -0 -0 -0 -0 -0 -0 -0 -0 -0 -0 -0 -0 -0 -0 -0 -0 -0 -0 -0 -0 -0 -0 -0 -0 -0 -0 -71 -93
-0 -0 -0 -0 -0 -0 -0 -0 -0 -0 -0 -0 -0 -0 -0 -0 -0 -0 -0 -0 -0 -0 -0 -0 -0 -0 -0 -0 -0 -0 -0 -0 -0 -0 -0 -0 -0 -0 -0 -0 -0 -0 -0 -0 -0 -0 -0 -0 -0
-0 -0 -0 -0 -0 -0 -0 -0 -0 -0 -0 -0 -0 -0 -0 -0 -0 -0 -0 -0 -0 -0 -0 -0 -0 -0 -0 -0 -0 -0 -0 -0 -0 -0 -0 -0 -0 -0 -0 -0 -0 -0 -0 -0 -1 -0 -0 -0 -0
-0 -0 -0 -0 -0 -0 -0 -0 -0 -0 -0 -0 -0 -0 -0 -0 -0 -0 -0 -0 -0 -0 -0 -0 -0 -0 -0 -0 -0 -0 -0 -0 -0 -0 -0 -0 -0 -0 -0 -0 -0 -0 -0 -0 -1 -1 -0 -0 -0
-0 -0 -0 -0 -0 -0 -0 -0 -0 -0 -0 -0 -0 -0 -0 -0 -0 -0 -0 -0 -0 -0 -0 -0 -0 -0 -0 -0 -0 -0 -0 -0 -0 -0 -0 -0 -0 -0 -0 -0 -0 -0 -0 -0 -0 -0 -0 -0 -0
-0 -0 -0 -0 -0 -0 -0 -0 -0 -0 -0 -0 -0 -0 -0 -0 -0 -0 -0 -0 -0 -0 -0 -0 -0 -0 -0 -0 -0 -0 -0 -0 -0 -0 -0 -0 -0 -0 -0 -0 -0 -0 -0 -0 -0 -0 -1 -0 -0
-0 -0 -0 -0 -0 -0 -0 -0 -0 -0 -0 -0 -0 -0 -0 -0 -0 -0 -0 -0 -0 -0 -0 -0 -0 -0 -0 -0 -0 -0 -0 -0 -0 -0 -0 -0 -0 -0 -0 -0 -0 -0 -0 -0 -0 -1 -1 -0 -0
Wind_Speed
6 7 2 2 5 4 4 9 14 7 5 17 17 16 18 10 8 8 1 17 17 14 10 12 15 15 14 13 12 15 14 12 12 12 13 13 13 12 11 11 11 11 12 13 13 14 13 12 10
4 7 2 2 5 6 5 5 10 5 6 21 21 22 20 15 14 15 8 13 15 14 9 10 15 14 14 12 11 12 15 13 12 11 12 12 12 11 11 11 10 10 11 13 12 12 11 9 8
3 4 3 4 4 5 5 4 5 7 12 13 8 12 6 2 8 6 18 17 14 13 11 11 15 13 13 12 11 10 12 12 12 11 11 11 11 10 9 10 9 9 10 12 12 11 8 7 5
3 4 5 2 2 6 4 6 8 17 16 12 14 10 5 6 4 14 19 19 14 11 11 12 14 14 12 12 12 10 10 11 10 11 11 10 10 9 8 8 8 8 9 10 11 9 7 5 3
0 1 0 3 3 3 9 9 13 22 13 13 17 10 8 15 20 19 18 16 15 11 8 9 13 14 13 11 11 11 10 10 9 9 9 9 9 9 8 7 7 7 8 10 9 7 6 4 1
4 2 2 4 3 4 6 10 21 21 17 15 18 13 6 9 13 12 15 16 15 13 10 8 13 14 13 12 11 9 8 9 9 8 8 8 8 7 7 8 7 7 8 8 8 8 6 4 1
5 2 4 3 4 6 6 9 18 19 18 11 13 14 5 8 8 12 16 14 14 13 10 7 7 8 10 12 11 10 10 7 7 7 7 7 7 7 6 6 7 8 7 7 8 7 6 4 2
3 3 6 3 6 4 4 13 11 18 11 7 5 6 5 4 12 13 17 14 12 10 10 7 6 6 5 5 10 10 10 9 8 6 5 5 6 6 6 6 6 7 8 8 8 7 6 5 4
1 5 4 5 4 5 9 16 15 12 15 18 9 9 8 9 11 13 15 14 10 8 9 8 7 6 7 6 6 8 10 10 10 8 7 4 3 4 5 6 7 7 7 7 9 9 7 6 6
4 4 3 2 5 10 12 14 11 13 13 11 10 7 10 8 11 12 11 13 11 12 11 10 7 7 6 7 6 6 4 2 4 5 6 5 5 5 7 7 10 9 7 7 8 9 9 6 4
4 4 6 6 5 9 10 18 6 16 12 6 6 6 7 7 6 2 5 16 17 16 12 13 12 8 7 5 5 3 3 4 3 5 5 6 5 5 4 3 3 3 7 3 5 4 4 5 4
5 7 7 3 7 6 10 8 10 10 6 7 11 19 24 21 20 17 15 20 5 16 15 14 13 12 8 5 5 7 5 4 4 5 6 3 3 4 5 4 6 5 4 5 5 3 5 7 7
9 6 7 7 5 5 12 12 9 8 6 15 24 24 22 21 20 19 18 19 20 14 6 14 13 12 11 8 6 6 6 7 7 6 6 6 5 4 4 5 6 6 5 6 5 6 6 7 8
9 11 7 6 4 6 16 9 9 7 16 23 24 22 22 23 22 22 21 20 20 18 15 5 9 12 10 7 7 6 5 7 6 6 7 10 6 5 4 5 5 6 7 7 8 7 8 8 8
13 11 8 5 2 6 12 12 8 9 22 23 21 20 21 21 22 20 18 20 18 16 17 17 16 6 6 8 6 3 5 5 6 5 7 10 8 7 6 5 5 5 7 8 7 8 5 6 6
6 7 5 4 1 4 8 4 7 14 22 19 18 17 18 19 20 18 17 18 18 16 18 17 15 15 13 12 2 3 2 2 4 6 5 7 10 8 6 4 4 5 4 7 5 7 7 7 7
2 6 8 4 5 4 8 7 5 16 20 17 14 13 15 16 18 17 16 17 16 16 17 18 17 16 15 13 9 10 9 6 5 3 4 7 7 10 9 6 5 6 4 4 5 5 5 7 7
8 6 5 8 9 11 13 8 9 14 18 14 11 11 15 16 16 15 15 13 14 16 16 17 16 19 15 10 8 7 7 9 11 12 11 8 6 10 9 8 8 6 4 5 5 5 5 5 5
10 6 7 7 9 21 10 12 8 8 10 10 8 9 13 15 13 12 12 13 12 13 17 19 19 19 13 14 11 5 8 8 9 10 15 16 15 14 9 8 6 6 8 6 6 5 7 7 3
11 6 11 18 20 21 12 10 8 9 7 9 10 9 10 12 13 13 12 12 14 15 14 16 17 17 14 10 10 5 6 6 6 8 8 14 15 14 17 13 9 12 10 9 6 6 7 6 5
6 19 18 26 17 17 17 6 8 7 9 11 9 9 9 12 11 12 12 11 9 13 12 13 14 14 13 13 9 9 5 7 9 13 12 12 14 15 14 14 14 15 10 10 11 9 9 11 5
6 12 20 22 22 16 8 6 10 13 11 11 9 9 9 10 11 11 10 10 11 8 9 8 10 12 12 12 11 12 8 8 7 8 9 10 12 13 14 14 13 12 9 15 13 8 11 11 13
5 8 16 14 11 7 15 8 8 15 13 13 12 11 9 9 10 9 10 10 8 8 7 7 8 10 8 9 11 8 10 6 6 7 10 11 11 13 13 13 13 13 9 11 14 17 13 11 12
3 10 9 5 5 5 16 9 13 16 18 14 13 12 11 9 9 9 8 9 7 7 7 7 7 7 7 7 8 9 9 10 9 12 10 9 8 8 11 12 10 8 9 11 11 15 16 16 13
4 8 4 1 3 5 8 10 6 14 18 20 17 13 10 9 8 8 9 7 6 7 6 4 6 6 7 7 6 7 7 7 9 10 9 11 11 11 13 14 13 10 10 10 13 12 15 14 15
6 6 7 8 6 5 4 5 2 16 17 19 17 14 11 9 8 8 8 8 8 7 6 5 6 6 6 6 6 5 6 3 3 5 6 7 8 10 14 14 14 15 16 13 9 7 9 12 14
7 8 3 1 3 5 5 5 7 14 14 16 16 13 10 9 9 9 8 8 8 6 5 6 7 6 5 5 4 4 4 4 4 6 4 4 6 9 12 13 14 14 14 14 13 8 8 6 8
1 2 4 1 7 6 7 9 11 18 17 16 15 12 9 8 8 8 7 8 7 7 6 7 6 6 5 5 4 4 5 5 4 5 6 6 6 7 10 11 12 14 14 15 16 13 9 9 7
4 3 4 5 5 6 7 6 15 21 20 17 13 13 10 9 9 8 7 7 8 7 7 7 6 6 6 6 4 4 4 5 5 5 6 6 6 6 8 9 10 11 14 14 14 14 14 15 13
2 5 5 5 4 3 5 4 16 17 15 15 14 13 10 10 9 8 8 8 7 7 7 6 5 6 6 6 6 6 6 6 6 6 7 7 7 7 8 9 10 11 11 11 15 16 12 14 17
Wind_Direction
308 314 174 340 54 79 185 245 239 78 46 93 87 75 70 49 79 115 126 108 117 117 122 116 112 115 113 115 118 118 110 101 96 95 94 93 91 91 94 96 91 96 97 97 94 95 88 88 93
328 314 125 280 81 82 277 227 256 117 125 104 89 96 72 68 73 122 105 115 117 119 114 114 112 116 117 118 121 119 119 114 104 98 94 93 93 89 90 98 98 100 103 104 97 98 88 87 83
262 179 68 138 145 174 226 249 117 56 56 96 92 48 50 57 61 82 124 124 117 115 118 118 116 114 121 123 122 121 120 116 113 109 103 98 95 95 93 95 102 102 107 107 104 103 100 93 98
338 19 335 96 217 238 233 21 68 52 56 64 127 59 41 30 73 128 129 120 113 107 120 123 122 119 121 127 126 121 120 119 118 117 113 110 106 101 102 102 106 102 108 112 112 115 111 105 81
296 316 298 217 278 291 26 55 57 63 61 72 85 79 82 73 102 120 121 115 107 108 112 118 126 123 125 125 126 128 127 125 124 120 118 118 119 120 121 117 115 111 104 105 110 107 101 101 67
321 119 330 47 77 6 32 33 74 67 61 95 88 103 83 95 103 113 107 110 114 117 112 119 133 138 130 128 129 130 131 135 136 133 131 127 129 132 134 133 130 124 118 116 122 130 137 150 240
171 96 241 117 325 29 32 45 72 75 56 60 106 93 104 103 122 108 111 109 113 116 116 117 122 127 131 136 137 138 139 140 144 145 145 141 139 144 146 146 145 139 139 142 146 152 160 174 233
142 125 327 277 158 100 52 72 84 66 44 39 69 91 117 148 112 103 102 107 108 117 121 125 125 124 118 136 142 145 147 148 150 152 151 151 158 162 163 163 166 161 160 163 167 171 176 193 235
333 49 35 358 94 69 27 91 78 65 73 59 59 101 125 126 106 107 110 116 118 129 134 136 146 152 145 133 150 150 156 157 159 160 165 152 177 186 176 186 186 184 183 185 185 189 196 216 253
109 92 114 345 15 96 67 60 88 83 59 48 54 53 121 127 125 137 148 147 148 151 153 150 157 161 161 158 146 149 162 165 173 170 168 180 204 197 192 202 186 192 194 204 210 209 213 226 244
207 162 157 8 34 102 95 64 54 86 69 67 66 56 62 56 78 109 167 171 163 163 159 164 158 166 179 144 157 167 168 170 201 209 185 194 199 197 200 170 186 183 200 203 213 224 228 237 239
137 69 95 37 19 84 93 106 75 78 102 120 69 67 58 49 48 44 34 29 184 163 165 167 163 161 184 148 176 174 167 184 193 196 196 208 240 210 192 173 183 187 186 200 206 211 225 235 243
109 116 80 102 21 51 97 82 107 85 118 81 70 60 52 49 44 42 46 40 33 14 179 172 165 169 182 159 182 183 185 183 187 200 194 186 212 242 231 190 184 190 184 197 201 207 218 228 238
131 106 102 115 64 56 86 58 82 30 83 77 71 65 57 51 43 37 35 38 32 27 20 11 183 172 179 187 173 182 200 188 191 190 198 194 206 211 209 227 197 198 194 200 202 203 214 224 226
99 90 66 21 113 116 83 35 43 69 82 79 74 71 65 54 47 43 36 39 33 28 28 25 24 342 184 189 190 188 185 189 192 203 202 196 197 213 220 224 227 197 210 210 210 217 211 222 226
107 93 106 276 112 357 89 93 14 86 86 81 78 75 72 62 56 46 38 44 38 35 32 29 27 25 24 11 333 212 232 239 194 213 197 199 208 203 217 213 241 254 198 215 208 217 226 226 216
313 160 126 170 197 117 94 115 49 91 89 86 81 79 79 73 60 50 40 46 37 37 37 35 28 30 24 16 17 25 358 348 298 218 215 221 201 212 212 221 228 233 247 239 214 213 215 225 230
183 155 159 154 194 105 107 116 85 95 96 99 94 91 87 83 77 64 45 50 44 39 36 40 35 27 26 20 7 24 18 13 12 5 358 313 227 206 204 217 222 221 234 245 249 235 237 225 217
179 162 143 186 154 113 115 111 109 91 87 91 94 94 97 94 88 78 60 44 34 39 38 33 31 25 21 22 9 18 17 17 15 5 359 356 359 338 245 209 223 224 225 229 225 234 227 255 234
255 197 143 113 118 117 116 100 93 90 103 109 99 93 96 98 87 74 62 49 37 33 42 39 34 29 26 18 13 14 351 20 26 15 10 21 6 6 4 337 260 219 229 234 229 222 249 252 197
191 149 140 134 120 113 116 98 120 120 109 105 102 103 95 100 97 91 76 63 44 40 39 45 42 35 27 22 19 14 7 17 13 5 10 9 10 21 10 8 359 345 289 235 227 228 215 251 238
104 164 140 139 133 150 162 166 169 156 151 133 119 101 97 94 92 91 90 76 60 31 26 39 49 43 37 24 26 28 29 17 357 353 347 357 5 14 16 11 3 358 351 350 300 238 230 235 248
169 160 153 157 134 127 213 114 183 160 152 136 121 109 99 99 101 97 94 91 76 57 45 32 49 38 37 37 31 27 23 4 348 353 356 359 356 359 4 13 357 357 352 351 332 335 277 231 233
141 85 65 131 166 194 210 178 181 176 157 138 124 117 112 106 101 103 105 97 83 66 55 41 54 49 35 42 38 31 21 4 2 356 357 351 350 352 352 348 348 331 340 342 337 333 322 286 247
72 96 81 33 246 206 196 191 206 169 146 136 130 125 120 117 111 104 101 110 107 94 76 67 62 52 41 48 44 33 27 14 2 354 352 350 347 347 346 349 344 329 332 338 348 339 341 331 327
196 155 152 177 183 154 206 143 163 118 119 128 129 136 133 124 122 122 119 115 117 104 98 67 62 70 42 44 33 38 27 27 359 341 343 346 344 338 339 337 339 343 338 342 324 330 330 337 329
207 230 179 154 112 92 123 47 75 121 125 129 136 133 140 140 132 136 125 118 110 109 97 82 61 64 37 29 31 34 20 15 345 327 320 318 324 332 338 333 335 335 332 328 328 323 320 336 346
191 274 146 284 165 171 155 179 171 160 155 150 145 145 146 139 135 124 120 116 100 96 83 65 58 60 24 9 17 29 3 357 327 320 318 311 300 315 325 331 332 332 331 328 330 329 318 335 331
169 221 202 164 148 165 145 236 166 169 161 154 153 151 142 130 126 126 126 117 106 90 75 66 56 44 19 7 360 6 1 353 338 330 317 306 303 295 309 313 320 327 330 328 326 325 323 334 337
215 205 177 127 213 171 119 271 148 149 153 154 152 137 135 131 134 128 118 105 95 89 75 72 59 43 18 357 9 358 2 348 342 327 318 313 310 304 301 309 312 320 322 319 324 322 333 334 324